Home   Weather   Antwerp   Past weeks

Flag for Belgium Past Weather in Antwerp, Belgium — Yesterday and Last 2 Weeks

Now
70 °F

Passing clouds.


Feels Like: 70 °F
Forecast: 60 / 69 °F
Wind: 10 mph from South

Location: Antwerp / Deurne

Current Time: Aug 17, 2017 at 7:51:17 pm

Latest Report: Aug 17, 2017 at 7:20 pm


Visibility: N/A

Pressure: 29.95 "Hg

Humidity: 83%

Dew Point: 64 °F

Location of AntwerpLocation

Past Weather in Antwerp — Graph

°F

Antwerp Temperature Yesterday

Maximum temperature yesterday: 75 °F (at 6:20 pm)
Minimum temperature yesterday: 52 °F (at 5:20 am)
Average temperature yesterday: 65 °F

High & Low Weather Summary for the Past Weeks

 TemperatureHumidityPressure
High79 °F (Aug 14, 4:50 pm)100% (Aug 12, 11:20 am)30.24 "Hg (Aug 12, 11:20 am)
Low50 °F (Aug 6, 5:20 am)34% (Aug 7, 5:50 pm)29.77 "Hg (Aug 8, 11:20 am)
Average64 °F74%30.02 "Hg
* Reported Aug 2 6:20 pm — Aug 17 6:20 pm, Antwerp. Weather by CustomWeather, © 2017

Note: Actual official high and low records may vary slightly from our data, if they occured in-between our weather recording intervals... More about our weather records

Advertising

Antwerp Weather History for the Previous 24 Hours

Scroll right to see more
 ConditionsComfort  
Time TempWeatherWind HumidityBarometerVisibility
6:20 pm
Thu, Aug 17
70 °FBroken clouds.10 mph83%29.95 "HgN/A
5:50 pm68 °FBroken clouds.8 mph88%29.95 "HgN/A
5:20 pm68 °FLight rain. Partly sunny.10 mph88%29.95 "HgN/A
4:50 pm66 °FLight rain. Partly sunny.10 mph94%29.95 "HgN/A
4:20 pm68 °FLight rain. Partly sunny.12 mph83%29.95 "HgN/A
3:20 pm68 °FLight rain. Partly sunny.10 mph83%29.95 "HgN/A
2:50 pm66 °FLight rain. Partly sunny.8 mph88%29.98 "HgN/A
2:20 pm66 °FLight rain. Partly sunny.10 mph88%29.95 "Hg4 mi
1:50 pm66 °FPartly sunny.13 mph83%29.95 "HgN/A
1:20 pm64 °FPartly sunny.10 mph88%29.95 "HgN/A
12:50 pm64 °FPartly sunny.13 mph88%29.95 "HgN/A
12:20 pm64 °FPartly sunny.12 mph83%29.95 "HgN/A
11:50 am64 °FLight rain. Broken clouds.12 mph88%29.95 "HgN/A
11:20 am66 °FLight rain. Broken clouds.6 mph83%29.95 "HgN/A
10:50 am66 °FLight rain. Partly sunny.6 mph78%29.95 "HgN/A
10:20 am66 °FLight rain. Partly sunny.5 mph78%29.95 "HgN/A
9:50 am66 °FLight rain. Partly sunny.6 mph78%29.95 "HgN/A
9:20 am64 °FLight rain. Clear.6 mph83%29.95 "HgN/A
8:50 am63 °FLight rain. Clear.5 mph83%29.95 "HgN/A
8:20 am63 °FLight rain. Clear.5 mph83%29.98 "HgN/A
7:50 am63 °FSunny.5 mph77%29.98 "Hg10 mi
7:20 am63 °FSunny.7 mph73%29.98 "Hg10 mi
6:50 am63 °FSunny.7 mph73%29.98 "Hg10 mi
6:20 am63 °FClear.8 mph73%29.98 "Hg10 mi
5:50 am63 °FClear.7 mph73%29.98 "Hg10 mi
5:20 am63 °FOvercast.7 mph77%29.98 "HgN/A
4:50 am63 °FOvercast.7 mph77%30.01 "HgN/A
4:20 am63 °FPassing clouds.7 mph73%30.01 "HgN/A
3:50 am61 °FPassing clouds.6 mph77%30.04 "HgN/A
3:20 am57 °FClear.6 mph82%30.04 "Hg10 mi
2:50 am57 °FClear.6 mph82%30.04 "Hg10 mi
2:20 am57 °FClear.5 mph88%30.04 "Hg10 mi
1:50 am55 °FPassing clouds.3 mph94%30.07 "HgN/A
1:20 am57 °FClear.1 mph94%30.07 "Hg10 mi
12:50 am57 °FClear.2 mph88%30.07 "Hg10 mi
12:20 am57 °FClear.2 mph88%30.07 "Hg10 mi
11:50 pm
Wed, Aug 16
59 °FClear.2 mph88%30.09 "Hg10 mi
11:20 pm57 °FClear.3 mph88%30.09 "Hg10 mi
10:50 pm59 °FClear.2 mph82%30.09 "Hg10 mi
10:20 pm61 °FClear.1 mph83%30.09 "Hg10 mi
9:50 pm64 °FClear.2 mph68%30.12 "Hg10 mi
9:20 pm70 °FClear.3 mph57%30.12 "Hg10 mi
8:50 pm72 °FPassing clouds.3 mph53%30.09 "HgN/A
8:20 pm72 °FSunny.3 mph53%30.09 "Hg10 mi
7:50 pm73 °FSunny.7 mph50%30.09 "Hg10 mi
7:20 pm73 °FPassing clouds.8 mph50%30.12 "HgN/A
Weather by CustomWeather, © 2017

See weather overviewHow to use our weather pages